Location: Pittman
(37.9557°N, 80.9209°W)
Time: 14:54:11
(UTC+00:00)

Envisat - Pass Details

Date: 23 April 2026
Orbit: 761 x 762 km, 98.4° (Epoch: 15 May)

Event Time Altitude Azimuth Distance (km) Brightness Sun altitude
Rises 07:56:20 0° 13° (NNE) 3,230 7.1 -27.9°
Reaches altitude 10° 07:58:39 10° 15° (NNE) 2,300 6.2 -27.6°
Maximum altitude 08:03:44 82° 102° (ESE) 772 2.9 -26.9°
Enters shadow 08:03:46 82° 112° (ESE) 772 2.9 -26.9°
